Time,TemperatureF,DewpointF,PressureIn,WindDirection,WindDirectionDegrees,WindSpeedMPH,WindSpeedGustMPH,Humidity,HourlyPrecipIn,Conditions,Clouds,dailyrainin,SoftwareType,DateUTC
2013-01-24 00:13:00,35.2,28.0,30.19,NW,322,13.0,25.0,74,0.00,,,0.00,weatherlink.com 1.10,2013-01-24 05:13:00,
2013-01-24 00:29:00,35.6,28.0,30.18,West,265,12.0,29.0,74,0.00,,,0.00,weatherlink.com 1.10,2013-01-24 05:29:00,
2013-01-24 00:43:00,35.8,28.0,30.16,West,274,12.0,31.0,74,0.00,,,0.00,weatherlink.com 1.10,2013-01-24 05:43:00,
2013-01-24 00:59:00,35.9,28.0,30.15,NW,317,7.0,26.0,74,0.00,,,0.00,weatherlink.com 1.10,2013-01-24 05:59:00,
2013-01-24 01:13:00,36.0,28.0,30.16,WNW,297,7.0,23.0,74,0.00,,,0.00,weatherlink.com 1.10,2013-01-24 06:13:00,
2013-01-24 01:29:00,36.2,28.0,30.13,NW,313,4.0,34.0,73,0.00,,,0.00,weatherlink.com 1.10,2013-01-24 06:29:00,
2013-01-24 01:44:00,36.1,29.0,30.13,ENE,66,11.0,29.0,74,0.00,,,0.00,weatherlink.com 1.10,2013-01-24 06:44:00,
2013-01-24 01:59:00,36.2,29.0,30.12,NNW,333,12.0,30.0,74,0.00,,,0.00,weatherlink.com 1.10,2013-01-24 06:59:00,
2013-01-24 02:14:00,36.1,29.0,30.13,West,274,15.0,32.0,75,0.00,,,0.00,weatherlink.com 1.10,2013-01-24 07:14:00,
2013-01-24 02:29:00,35.9,29.0,30.12,WNW,284,23.0,31.0,76,0.00,,,0.00,weatherlink.com 1.10,2013-01-24 07:29:00,
2013-01-24 02:44:00,35.7,29.0,30.11,WNW,288,9.0,39.0,75,0.00,,,0.00,weatherlink.com 1.10,2013-01-24 07:44:00,
2013-01-24 02:59:00,35.2,29.0,30.11,NNE,13,6.0,27.0,77,0.00,,,0.00,weatherlink.com 1.10,2013-01-24 07:59:00,
2013-01-24 03:14:00,35.1,28.0,30.09,North,351,36.0,37.0,75,0.00,,,0.00,weatherlink.com 1.10,2013-01-24 08:14:00,
2013-01-24 03:29:00,34.9,28.0,30.10,NNW,331,13.0,33.0,75,0.00,,,0.00,weatherlink.com 1.10,2013-01-24 08:29:00,
2013-01-24 03:44:00,34.6,27.0,30.08,West,279,9.0,39.0,74,0.00,,,0.00,weatherlink.com 1.10,2013-01-24 08:44:00,
2013-01-24 03:59:00,34.0,27.0,30.08,NNW,333,11.0,39.0,75,0.00,,,0.00,weatherlink.com 1.10,2013-01-24 08:59:00,
2013-01-24 04:14:00,33.6,26.0,30.08,NNW,341,13.0,41.0,75,0.00,,,0.00,weatherlink.com 1.10,2013-01-24 09:14:00,
2013-01-24 04:29:00,33.4,27.0,30.07,North,360,34.0,34.0,76,0.00,,,0.00,weatherlink.com 1.10,2013-01-24 09:29:00,
2013-01-24 04:44:00,32.8,27.0,30.07,WSW,250,6.0,34.0,78,0.00,,,0.00,weatherlink.com 1.10,2013-01-24 09:44:00,
2013-01-24 04:59:00,32.7,26.0,30.08,West,266,11.0,37.0,76,0.00,,,0.00,weatherlink.com 1.10,2013-01-24 09:59:00,
2013-01-24 05:14:00,32.0,25.0,30.07,SW,234,11.0,28.0,75,0.00,,,0.00,weatherlink.com 1.10,2013-01-24 10:14:00,
2013-01-24 05:29:00,31.3,24.0,30.07,WNW,284,4.0,31.0,75,0.00,,,0.00,weatherlink.com 1.10,2013-01-24 10:29:00,
2013-01-24 05:44:00,30.6,24.0,30.07,North,360,5.0,30.0,75,0.00,,,0.00,weatherlink.com 1.10,2013-01-24 10:44:00,
2013-01-24 05:59:00,29.9,23.0,30.07,NNW,344,12.0,35.0,74,0.00,,,0.00,weatherlink.com 1.10,2013-01-24 10:59:00,
2013-01-24 06:14:00,29.4,22.0,30.06,NNE,29,7.0,35.0,73,0.00,,,0.00,weatherlink.com 1.10,2013-01-24 11:14:00,
2013-01-24 06:29:00,29.0,20.0,30.07,NNW,336,3.0,29.0,70,0.00,,,0.00,weatherlink.com 1.10,2013-01-24 11:29:00,
2013-01-24 06:44:00,28.8,17.0,30.07,North,355,13.0,42.0,61,0.00,,,0.00,weatherlink.com 1.10,2013-01-24 11:44:00,
2013-01-24 07:00:00,28.1,14.0,30.06,NW,315,23.0,34.0,55,0.00,,,0.00,weatherlink.com 1.10,2013-01-24 12:00:00,
2013-01-24 07:15:00,27.1,15.0,30.07,North,355,6.0,36.0,60,0.00,,,0.00,weatherlink.com 1.10,2013-01-24 12:15:00,
2013-01-24 07:30:00,26.6,16.0,30.08,NNW,342,10.0,31.0,64,0.00,,,0.00,weatherlink.com 1.10,2013-01-24 12:30:00,
2013-01-24 07:45:00,26.0,16.0,30.07,NNE,24,26.0,36.0,65,0.00,,,0.00,weatherlink.com 1.10,2013-01-24 12:45:00,
2013-01-24 08:00:00,25.9,16.0,30.09,West,270,12.0,33.0,65,0.00,,,0.00,weatherlink.com 1.10,2013-01-24 13:00:00,
2013-01-24 08:15:00,25.7,15.0,30.10,NW,305,11.0,34.0,65,0.00,,,0.00,weatherlink.com 1.10,2013-01-24 13:15:00,
2013-01-24 08:30:00,25.6,14.0,30.10,North,355,14.0,34.0,62,0.00,,,0.00,weatherlink.com 1.10,2013-01-24 13:30:00,
2013-01-24 08:45:00,25.4,14.0,30.13,NNW,340,16.0,35.0,61,0.00,,,0.00,weatherlink.com 1.10,2013-01-24 13:45:00,
2013-01-24 09:00:00,25.1,14.0,30.16,NNW,338,15.0,37.0,64,0.00,,,0.00,weatherlink.com 1.10,2013-01-24 14:00:00,
2013-01-24 09:15:00,25.3,15.0,30.17,NW,306,11.0,25.0,65,0.00,,,0.00,weatherlink.com 1.10,2013-01-24 14:15:00,
2013-01-24 09:30:00,25.6,15.0,30.20,NNW,344,15.0,22.0,64,0.00,,,0.00,weatherlink.com 1.10,2013-01-24 14:30:00,
2013-01-24 09:45:00,26.4,16.0,30.23,ENE,74,9.0,20.0,65,0.00,,,0.00,weatherlink.com 1.10,2013-01-24 14:45:00,
2013-01-24 10:00:00,25.9,15.0,30.25,NNW,344,7.0,23.0,64,0.00,,,0.00,weatherlink.com 1.10,2013-01-24 15:00:00,
2013-01-24 10:15:00,25.6,14.0,30.27,NE,51,10.0,28.0,63,0.00,,,0.00,weatherlink.com 1.10,2013-01-24 15:15:00,
2013-01-24 10:30:00,25.6,15.0,30.29,NW,325,13.0,21.0,64,0.00,,,0.00,weatherlink.com 1.10,2013-01-24 15:30:00,
2013-01-24 10:45:00,25.8,15.0,30.32,NNW,347,5.0,15.0,63,0.00,,,0.00,weatherlink.com 1.10,2013-01-24 15:45:00,
2013-01-24 11:00:00,26.1,15.0,30.33,NW,312,10.0,14.0,62,0.00,,,0.00,weatherlink.com 1.10,2013-01-24 16:00:00,
2013-01-24 11:15:00,25.6,13.0,30.34,NW,319,3.0,23.0,59,0.00,,,0.00,weatherlink.com 1.10,2013-01-24 16:15:00,
2013-01-24 11:31:00,25.7,12.0,30.35,North,355,15.0,15.0,56,0.00,,,0.00,weatherlink.com 1.10,2013-01-24 16:31:00,
2013-01-24 11:45:00,24.6,10.0,30.36,NW,306,4.0,26.0,53,0.00,,,0.00,weatherlink.com 1.10,2013-01-24 16:45:00,
2013-01-24 12:15:00,25.7,8.0,30.37,NNE,22,7.0,15.0,47,0.00,,,0.00,weatherlink.com 1.10,2013-01-24 17:15:00,
2013-01-24 12:31:00,25.3,8.0,30.37,NW,317,7.0,20.0,47,0.00,,,0.00,weatherlink.com 1.10,2013-01-24 17:31:00,
2013-01-24 12:45:00,25.6,8.0,30.37,NNW,342,6.0,20.0,48,0.00,,,0.00,weatherlink.com 1.10,2013-01-24 17:45:00,
2013-01-24 13:00:00,26.1,7.0,30.38,West,273,8.0,20.0,45,0.00,,,0.00,weatherlink.com 1.10,2013-01-24 18:00:00,
2013-01-24 13:16:00,25.7,6.0,30.39,West,277,4.0,16.0,43,0.00,,,0.00,weatherlink.com 1.10,2013-01-24 18:16:00,
2013-01-24 13:31:00,25.2,4.0,30.39,North,5,4.0,21.0,41,0.00,,,0.00,weatherlink.com 1.10,2013-01-24 18:31:00,
2013-01-24 13:46:00,25.8,6.0,30.39,North,9,10.0,18.0,43,0.00,,,0.00,weatherlink.com 1.10,2013-01-24 18:46:00,
2013-01-24 14:01:00,26.0,6.0,30.40,NW,323,12.0,16.0,43,0.00,,,0.00,weatherlink.com 1.10,2013-01-24 19:01:00,
2013-01-24 14:16:00,25.2,5.0,30.41,NNW,338,9.0,18.0,42,0.00,,,0.00,weatherlink.com 1.10,2013-01-24 19:16:00,
2013-01-24 14:31:00,25.4,6.0,30.41,NNE,14,2.0,15.0,43,0.00,,,0.00,weatherlink.com 1.10,2013-01-24 19:31:00,
2013-01-24 14:46:00,25.3,5.0,30.42,NNE,16,2.0,16.0,42,0.00,,,0.00,weatherlink.com 1.10,2013-01-24 19:46:00,
2013-01-24 15:01:00,25.1,5.0,30.43,North,5,7.0,11.0,43,0.00,,,0.00,weatherlink.com 1.10,2013-01-24 20:01:00,
2013-01-24 15:16:00,24.0,4.0,30.44,NNW,342,3.0,17.0,43,0.00,,,0.00,weatherlink.com 1.10,2013-01-24 20:16:00,
2013-01-24 15:30:00,24.1,4.0,30.45,NNW,348,6.0,14.0,43,0.00,,,0.00,weatherlink.com 1.10,2013-01-24 20:30:00,
2013-01-24 15:45:00,24.3,4.0,30.45,North,349,6.0,11.0,41,0.00,,,0.00,weatherlink.com 1.10,2013-01-24 20:45:00,
2013-01-24 16:01:00,24.5,4.0,30.46,ENE,64,2.0,11.0,42,0.00,,,0.00,weatherlink.com 1.10,2013-01-24 21:01:00,
2013-01-24 16:16:00,24.1,3.0,30.47,NNW,333,6.0,12.0,41,0.00,,,0.00,weatherlink.com 1.10,2013-01-24 21:16:00,
2013-01-24 16:31:00,24.0,5.0,30.48,NW,319,6.0,12.0,44,0.00,,,0.00,weatherlink.com 1.10,2013-01-24 21:31:00,
2013-01-24 16:46:00,23.7,6.0,30.48,North,351,5.0,10.0,47,0.00,,,0.00,weatherlink.com 1.10,2013-01-24 21:46:00,
2013-01-24 17:01:00,22.9,6.0,30.48,North,5,1.0,9.0,48,0.00,,,0.00,weatherlink.com 1.10,2013-01-24 22:01:00,
2013-01-24 17:15:00,22.2,6.0,30.48,North,355,3.0,10.0,49,0.00,,,0.00,weatherlink.com 1.10,2013-01-24 22:15:00,
2013-01-24 17:30:00,21.7,6.0,30.49,NNW,347,2.0,9.0,50,0.00,,,0.00,weatherlink.com 1.10,2013-01-24 22:30:00,
2013-01-24 17:45:00,21.2,5.0,30.50,NNE,12,2.0,9.0,49,0.00,,,0.00,weatherlink.com 1.10,2013-01-24 22:45:00,
2013-01-24 18:00:00,20.6,5.0,30.50,NNW,336,4.0,8.0,51,0.00,,,0.00,weatherlink.com 1.10,2013-01-24 23:00:00,
2013-01-24 18:16:00,20.2,5.0,30.50,North,355,4.0,6.0,51,0.00,,,0.00,weatherlink.com 1.10,2013-01-24 23:16:00,
2013-01-24 18:32:00,19.8,5.0,30.52,North,9,4.0,4.0,53,0.00,,,0.00,weatherlink.com 1.10,2013-01-24 23:32:00,
2013-01-24 18:46:00,19.4,5.0,30.52,NNW,342,6.0,9.0,53,0.00,,,0.00,weatherlink.com 1.10,2013-01-24 23:46:00,
2013-01-24 19:01:00,19.3,5.0,30.52,NNW,342,8.0,12.0,53,0.00,,,0.00,weatherlink.com 1.10,2013-01-25 00:01:00,
2013-01-24 19:16:00,19.0,5.0,30.52,NNE,25,8.0,10.0,54,0.00,,,0.00,weatherlink.com 1.10,2013-01-25 00:16:00,
2013-01-24 19:31:00,18.7,5.0,30.51,NNW,337,6.0,12.0,55,0.00,,,0.00,weatherlink.com 1.10,2013-01-25 00:31:00,
2013-01-24 19:46:00,18.4,5.0,30.51,NNW,339,8.0,11.0,56,0.00,,,0.00,weatherlink.com 1.10,2013-01-25 00:46:00,
2013-01-24 20:01:00,18.2,4.0,30.52,North,360,7.0,12.0,55,0.00,,,0.00,weatherlink.com 1.10,2013-01-25 01:01:00,
2013-01-24 20:16:00,18.1,3.0,30.52,North,355,8.0,13.0,53,0.00,,,0.00,weatherlink.com 1.10,2013-01-25 01:16:00,
2013-01-24 20:31:00,17.8,4.0,30.52,North,10,5.0,11.0,54,0.00,,,0.00,weatherlink.com 1.10,2013-01-25 01:31:00,
2013-01-24 20:46:00,17.4,3.0,30.53,NNW,346,6.0,9.0,54,0.00,,,0.00,weatherlink.com 1.10,2013-01-25 01:46:00,
2013-01-24 21:01:00,17.1,3.0,30.53,North,355,6.0,8.0,54,0.00,,,0.00,weatherlink.com 1.10,2013-01-25 02:01:00,
2013-01-24 21:16:00,16.8,3.0,30.53,NNW,341,3.0,6.0,55,0.00,,,0.00,weatherlink.com 1.10,2013-01-25 02:16:00,
2013-01-24 21:31:00,16.7,3.0,30.53,North,360,3.0,6.0,55,0.00,,,0.00,weatherlink.com 1.10,2013-01-25 02:31:00,
2013-01-24 21:47:00,16.6,3.0,30.53,NNW,336,2.0,4.0,55,0.00,,,0.00,weatherlink.com 1.10,2013-01-25 02:47:00,
2013-01-24 22:01:00,16.7,3.0,30.54,NNW,336,1.0,3.0,55,0.00,,,0.00,weatherlink.com 1.10,2013-01-25 03:01:00,
2013-01-24 22:16:00,17.2,3.0,30.54,SSE,157,2.0,3.0,54,0.00,,,0.00,weatherlink.com 1.10,2013-01-25 03:16:00,
2013-01-24 22:31:00,17.5,4.0,30.54,SSE,149,2.0,6.0,56,0.00,,,0.00,weatherlink.com 1.10,2013-01-25 03:31:00,
2013-01-24 22:46:00,17.5,5.0,30.54,SSE,159,3.0,9.0,57,0.00,,,0.00,weatherlink.com 1.10,2013-01-25 03:46:00,
2013-01-24 23:01:00,17.4,6.0,30.54,SE,141,6.0,10.0,61,0.00,,,0.00,weatherlink.com 1.10,2013-01-25 04:01:00,
2013-01-24 23:17:00,17.3,6.0,30.55,SSE,159,2.0,9.0,61,0.00,,,0.00,weatherlink.com 1.10,2013-01-25 04:17:00,
2013-01-24 23:32:00,17.0,5.0,30.56,South,172,4.0,14.0,60,0.00,,,0.00,weatherlink.com 1.10,2013-01-25 04:32:00,
2013-01-24 23:47:00,16.5,5.0,30.56,SE,146,8.0,13.0,61,0.00,,,0.00,weatherlink.com 1.10,2013-01-25 04:47:00,